Regional Weather Roundup
Issued by NWS

Home | Current Version | Previous Version | Graphics & Text | Print | Product List | Glossary On
Versions: 1 2 3 4 5 6 7 8 9 10 11 12 13 14 15 16 17 18 19 20 21 22 23 24 25 26 27 28 29 30 31 32 33 34 35 36 37 38 39 40 41 42 43 44 45 46 47 48 49 50
000
ASUS45 KBOU 260707
RWRCO

WEATHER ROUNDUP FOR COLORADO
NATIONAL WEATHER SERVICE DENVER/BOULDER CO
1200 AM MST FRI DEC 26 2014

NOTE: "FAIR" INDICATES FEW OR NO CLOUDS BELOW 12000 FEET WITH NO
SIGNIFICANT WEATHER AND/OR OBSTRUCTIONS TO VISIBILITY.

COZ001>005-013-030-031-260800-
...NORTHWEST COLORADO...

CITY           SKY/WX    TMP DP  RH WIND       PRES   REMARKS
CRAIG          CLOUDY    21  17  84 SW7       29.68S WCI  12
HAYDEN         CLOUDY    19  16  86 NW7       29.66S VSB 1   WCI  10
MEEKER         CLOUDY    23  18  81 NW3       29.66S
MOUNT WERNER   NOT AVBL
STEAMBOAT SPGS CLOUDY    21  19  89 E7        29.64S WCI  13
WALDEN         CLOUDY    14   9  79 NE13      29.65S WCI   0
$$

COZ006>008-011-260800-
...WEST CENTRAL VALLEYS...

CITY           SKY/WX    TMP DP  RH WIND       PRES   REMARKS
GRAND JUNCTION CLOUDY    26  24  92 NE3       29.70S
MONTROSE       CLOUDY    27  25  92 NE3       29.70S
EAGLE          CLOUDY    23  21  93 NE3       29.66S
RIFLE          LGT SNOW  26  23  88 W9        29.68R FOG     WCI  17
DELTA          CLOUDY    27  25  92 N5        29.71S WCI  21
NUCLA          CLEAR     21  18  86 E3        29.72F
$$

COZ017>023-064>068-260800-
...SOUTHWEST COLORADO...

CITY           SKY/WX    TMP DP  RH WIND       PRES   REMARKS
DURANGO        CLOUDY    21  19  92 NW3       29.67S
CORTEZ         MOCLDY    19  15  84 NE6       29.68F WCI  11
PAGOSA SPRINGS FLURRIES  24  23  96 S6        29.67S WCI  17
TELLURIDE      PTCLDY    15   8  72 CALM      29.62F
WOLF CREEK PAS CLOUDY     9   5  85 MISG      29.59S
$$

COZ009-010-012-014-032>034-037-058>063-260800-
...CENTRAL COLORADO...

CITY           SKY/WX    TMP DP  RH WIND       PRES   REMARKS
ASPEN          LGT SNOW  22  20  92 CALM      29.60S FOG
BUENA VISTA    CLOUDY    23  15  71 E7        29.62S WCI  14
COPPER MTN     LGT SNOW  14   9  79 SE9       29.55F WCI   2
BERTHOUD PASS  HAZE      -4  -9  77 MISG      29.57F VSB 1/2
COTTONWOOD PAS CLOUDY    21  18  86 CALM      29.59F
GUNNISON       MOCLDY    10   7  85 CALM      29.66S
KREMMLING      LGT SNOW  21  14  73 N3        29.67F
LEADVILLE      LGT SNOW  13  10  88 SE3       29.56F FOG
MONARCH PASS   CLOUDY    10   7  85 MISG      29.66F
SALIDA         CLOUDY    30  19  65 SE10      29.70S WCI  21
SUNLIGHT       PTCLDY    12   9  85 MISG      29.57F
WILKERSON PASS LGT SNOW N/A N/A N/A E8        29.61F
$$

COZ069>075-260800-
...SAN LUIS VALLEY/SANGRE DE CRISTO MOUNTAINS...

CITY           SKY/WX    TMP DP  RH WIND       PRES   REMARKS
ALAMOSA        PTCLDY    20  15  81 S9        29.65S WCI   9
LA VETA PASS   NOT AVBL
SAGUACHE       LGT SNOW  23  23 100 S5        29.64F WCI  17
$$

COZ035-036-038>040-260800-
...NORTHERN COLORADO FRONT RANGE...

CITY           SKY/WX    TMP DP  RH WIND       PRES   REMARKS
DENVER INTL AP CLOUDY    19  17  92 N13       29.85S WCI   6
DMNS CITY PARK   N/A     20  19  94 N9        29.86R WCI  10
AURORA         FLURRIES  18  18  99 N9        29.85S WCI   7
FRONT RANGE AP FLURRIES  23  21  93 N10G16    29.85S WCI  12
ERIE MUNI ARPT FLURRIES  21  19  93 N7        29.88S WCI  12
BOULDER MUN AP FLURRIES  23  21  93 N7        29.86F WCI  15
CENTENNIAL     LGT SNOW  18  17  96 N13       29.83S FOG     WCI   5
BROOMFIELD     LGT SNOW  21  19  93 N10       29.85S WCI  10
FORT COLLINS   CLOUDY    19  16  86 N13       29.89F WCI   7
LONGMONT       CLOUDY    24  20  84 N8        29.89F WCI  15
$$

COZ041-046-047-076>085-087-088-260800-
...PIKES PEAK/PALMER DIVIDE AND SOUTHERN FOOTHILLS...

CITY           SKY/WX    TMP DP  RH WIND       PRES   REMARKS
COLO. SPRINGS  LGT SNOW  22  16  78 N21       29.76S WCI   6
A. F. ACADEMY  LGT SNOW  19  14  79 N18G26    29.75S WCI   4
ELLICOTT       NOT AVBL
FALCON         LGT SNOW  19  16  89 N16G28    29.73S WCI   4
FORT CARSON    LGT SNOW  23  17  77 N25G38    29.74R WCI   6
LIMON          CLOUDY    21  19  92 N21       29.81R WCI   5
MONUMENT HILL  FLURRIES  18  14  86 N13       29.74F WCI   4
TRINIDAD       LGT SNOW  27  25  92 NE9       29.76S VSB 3/4 WCI  18
$$

COZ042>045-048>051-090-091-260800-
...NORTHEAST COLORADO...

CITY           SKY/WX    TMP DP  RH WIND       PRES   REMARKS
GREELEY ARPT   CLOUDY    21  14  73 NE7       29.88F WCI  13
AKRON          CLOUDY    20  18  92 N20       29.84F WCI   4
BURLINGTON     CLOUDY    26  22  84 N17       29.79F WCI  13
WRAY           CLOUDY    28  27  99 N18       29.86S FOG     WCI  15
STERLING       LGT SNOW  27  23  86 NE9       29.87F WCI  17
HOLYOKE        CLOUDY    27  23  86 N17       29.89R WCI  14
FORT MORGAN    CLOUDY    21  18  89 N13       29.89R WCI   9
$$

COZ086-089-092>099-260800-
...SOUTHEAST COLORADO...

CITY           SKY/WX    TMP DP  RH WIND       PRES   REMARKS
PUEBLO         CLOUDY    28  19  69 NE12      29.79S WCI  18
LA JUNTA       FLURRIES  30  26  85 NE10      29.79R WCI  21
LAMAR          CLOUDY    30  26  85 N15G26    29.79R WCI  19
SPRINGFIELD      N/A     27  24  89 N22       29.74R WCI  13
$$


USA.gov is the U.S. government's official web portal to all federal, state and local government web resources and services.